This is the latest recevied weather packets stored in our database for station/object KQ7A. If no packets are shown the sender has not sent any weather packets the latest 10 day(s).
| Time | Temp. | Humidity | Pressure | Rain* | Wind** | Luminosity | Snow |
|---|---|---|---|---|---|---|---|
| 1778089258 | 18.89° C | 52% | 1022.7 hPa | 0 mm | - | 901 W/m² | - |
| 1778088956 | 18.89° C | 47% | 1022.9 hPa | 0 mm | - | 874 W/m² | - |
| 1778088653 | 18.33° C | 48% | 1022.4 hPa | 0 mm | - | 872 W/m² | - |
| 1778088350 | 18.33° C | 45% | 1022.6 hPa | 0 mm | - | 861 W/m² | - |
| 1778088046 | 18.33° C | 46% | 1022.4 hPa | 0 mm | - | 868 W/m² | - |
| 1778087743 | 17.78° C | 62% | 1022.9 hPa | 0 mm | - | 832 W/m² | - |
| 1778087440 | 17.78° C | 54% | 1022.6 hPa | 0 mm | - | 807 W/m² | - |
| 1778087138 | 17.78° C | 49% | 1022.4 hPa | 0 mm | - | 774 W/m² | - |
| 1778086830 | 17.78° C | 54% | 1022.8 hPa | 0 mm | - | 731 W/m² | - |
| 1778086528 | 17.78° C | 60% | 1022.3 hPa | 0 mm | - | 702 W/m² | - |
| 1778086224 | 16.67° C | 59% | 1022.3 hPa | 0 mm | - | 640 W/m² | - |
| 1778085921 | 16.67° C | 64% | 1022.4 hPa | 0 mm | - | 744 W/m² | - |
| 1778085619 | 16.67° C | 64% | 1022.4 hPa | 0 mm | - | 753 W/m² | - |
| 1778085315 | 16.11° C | 63% | 1022.4 hPa | 0 mm | - | 693 W/m² | - |
| 1778085010 | 15.56° C | 62% | 1022.4 hPa | 0 mm | - | 670 W/m² | - |
| 1778084707 | 15.56° C | 64% | 1022.4 hPa | 0 mm | - | 608 W/m² | - |
| 1778084404 | 15° C | 67% | 1022.4 hPa | 0 mm | - | 589 W/m² | - |
| 1778084101 | 15.56° C | 64% | 1022.2 hPa | 0 mm | - | 575 W/m² | - |
| 1778083798 | 15° C | 65% | 1022.2 hPa | 0 mm | - | 554 W/m² | - |
| 1778083496 | 15° C | 64% | 1022.3 hPa | 0 mm | - | 537 W/m² | - |
| 1778083193 | 15° C | 67% | 1022.4 hPa | 0 mm | - | 487 W/m² | - |
| 1778082891 | 14.44° C | 67% | 1022.4 hPa | 0 mm | - | 451 W/m² | - |
| 1778081783 | 12.78° C | 70% | 1022.3 hPa | 0 mm | - | 351 W/m² | - |
| 1778081480 | 12.78° C | 71% | 1022.3 hPa | 0 mm | - | 321 W/m² | - |
| 1778081177 | 12.78° C | 69% | 1022.3 hPa | 0 mm | - | 294 W/m² | - |
* Rain latest hour (hover to see other rain measurements)
** Current wind speed in m/s (hover to see current wind gust speed)